User: anonymous   Login
Location: *
(32.8667°N, 13.1833°E)
Time: 04:11:27
(UTC+00:00)
Language:

Cosmos 2278 Rocket - Orbit

View from above orbital plane
View from above orbital plane
View from above satellite
View from above satellite

Ground track
Ground track

The orbit data is extracted from the following two-line orbital elements,

1 23088U 94023B   19264.79083606 -.00000187  00000-0 -72564-4 0  9996
2 23088  71.0018 347.1211 0005615 278.1277  81.9208 14.14676444312443
Epoch (UTC): 21 September 2019 18:58:48
Eccentricity: 0.0005615
inclination: 71.0018°
perigee height: 839 km
apogee height: 847 km
right ascension of ascending node: 347.1211°
argument of perigee: 278.1277°
revolutions per day: 14.14676444
mean anomaly at epoch: 81.9208°
orbit number at epoch: 31244

The dashed part of the orbit path shows where the satellite is in the earth's shadow,  

DLR